This is the latest recevied weather packets stored in our database for station/object WV5G-13. If no packets are shown the sender has not sent any weather packets the latest 1 day(s).
| Time | Temp. | Humidity | Pressure | Rain* | Wind** | Luminosity | Snow |
|---|---|---|---|---|---|---|---|
| 1778115172 | 13.89° C | 49% | 1013.3 hPa | 0 mm | - | 46 W/m² | - |
| 1778114869 | 13.89° C | 48% | 1013.2 hPa | 0 mm | - | 54 W/m² | - |
| 1778114567 | 14.44° C | 47% | 1013.2 hPa | 0 mm | - | 65 W/m² | - |
| 1778113958 | 13.89° C | 48% | 1013 hPa | 0 mm | - | 88 W/m² | - |
| 1778113654 | 14.44° C | 47% | 1013.1 hPa | 0 mm | - | 97 W/m² | - |
| 1778113350 | 14.44° C | 46% | 1013 hPa | 0 mm | - | 108 W/m² | - |
| 1778113047 | 15° C | 46% | 1013.1 hPa | 0 mm | - | 123 W/m² | - |
| 1778112745 | 14.44° C | 46% | 1012.9 hPa | 0 mm | - | 135 W/m² | - |
| 1778112441 | 14.44° C | 47% | 1012.9 hPa | 0 mm | - | 151 W/m² | - |
| 1778111834 | 15.56° C | 45% | 1012.8 hPa | 0 mm | - | 182 W/m² | - |
| 1778108195 | 15° C | 47% | 1012.7 hPa | 0 mm | - | 398 W/m² | - |
| 1778106677 | 15° C | 47% | 1012.7 hPa | 0 mm | - | 466 W/m² | - |
| 1778104250 | 13.89° C | 50% | 1012.8 hPa | 0 mm | - | 588 W/m² | - |
| 1778101825 | 13.89° C | 51% | 1013.2 hPa | 0 mm | - | 762 W/m² | - |
| 1778101218 | 13.89° C | 50% | 1013.3 hPa | 0 mm | - | 253 W/m² | - |
| 1778100610 | 14.44° C | 49% | 1013.2 hPa | 0 mm | - | 851 W/m² | - |
| 1778100005 | 13.89° C | 51% | 1013.1 hPa | 0 mm | - | 325 W/m² | - |
| 1778099096 | 15.56° C | 46% | 1013.3 hPa | 0 mm | - | 968 W/m² | - |
| 1778098787 | 15° C | 47% | 1013 hPa | 0 mm | - | 902 W/m² | - |
| 1778098181 | 15° C | 47% | 1012.9 hPa | 0 mm | - | 327 W/m² | - |
| 1778097271 | 13.33° C | 50% | 1013.1 hPa | 0 mm | - | 906 W/m² | - |
| 1778096665 | 14.44° C | 48% | 1013.5 hPa | 0 mm | - | 940 W/m² | - |
| 1778096059 | 13.33° C | 51% | 1013.6 hPa | 0 mm | - | 230 W/m² | - |
| 1778095452 | 14.44° C | 49% | 1013.7 hPa | 0 mm | - | 958 W/m² | - |
| 1778095149 | 13.89° C | 50% | 1013.8 hPa | 0 mm | - | 977 W/m² | - |
* Rain latest hour (hover to see other rain measurements)
** Current wind speed in m/s (hover to see current wind gust speed)